Location: Unspecified
(54.1780°N, 4.6260°W)
Time: 17:24:19
(UTC+00:00)

NOSS 8 (H) - Visible Passes

Search period start: 13 November 2025 00:00
Search period end: 23 November 2025 00:00
Orbit: 354 x 1533 km, 63.3° (Epoch: 13 November)

Date Brightness Start Highest point End Pass type
(mag) Time Alt. Az. Time Alt. Az. Time Alt. Az.
13 Nov 6.3 17:52:25 10° NW 17:54:33 17° NNW 17:55:54 13° NNE visible
14 Nov 6.2 18:08:45 10° NW 18:10:37 15° N 18:11:09 14° N visible
15 Nov 6.4 18:24:51 10° NW 18:26:21 15° N 18:26:21 15° N visible
16 Nov 6.6 18:40:39 10° NNW 18:41:31 14° NNW 18:41:31 14° NNW visible
17 Nov 6.2 17:08:33 10° NW 17:10:30 16° N 17:12:23 10° NNE visible
17 Nov 6.9 18:56:14 10° NNW 18:56:38 12° NNW 18:56:38 12° NNW visible
18 Nov 6.2 17:24:35 10° NW 17:26:23 15° N 17:27:47 11° NNE visible
18 Nov 7.2 19:11:42 10° NW 19:11:43 10° NW 19:11:43 10° NW visible
19 Nov 6.0 17:40:21 10° NNW 17:42:12 15° N 17:42:51 14° NNE visible
20 Nov 5.9 17:55:51 10° NNW 17:57:52 18° NNE 17:57:52 18° NNE visible
21 Nov 5.8 18:11:12 10° NNW 18:12:52 21° N 18:12:52 21° N visible
22 Nov 5.8 18:26:26 10° NW 18:27:52 22° NNW 18:27:52 22° NNW visible
